DW8305 Weather Reports


Display with metric or nautical units.
time (UTC)temp
F
wind
direction
speed
MPH
gust
MPH
rain 1hr
in
rain 24hr
in
rain mn
in
humidity
%
barometer
mb
20240622212057 65 270 2.0 5.0 0.00 0.00 0.00 79 1015.8
20240622211017 65 293 3.0 6.0 0.00 0.00 0.00 79 1015.7
20240622210037 65 270 2.0 4.0 0.00 0.00 0.00 81 1015.6
20240622205017 65 315 1.0 4.0 0.00 0.00 0.00 81 1015.6
20240622204017 65 270 2.0 4.0 0.00 0.00 0.00 80 1015.5
20240622203017 66 293 3.0 5.0 0.00 0.00 0.00 78 1015.4
20240622202057 66 270 3.0 6.0 0.00 0.00 0.00 76 1015.3
20240622201017 67 293 2.0 4.0 0.00 0.00 0.00 75 1015.0
20240622200017 67 293 1.0 2.0 0.00 0.00 0.00 74 1014.9
20240622195017 67 270 2.0 4.0 0.00 0.00 0.00 73 1014.6
20240622194017 68 293 2.0 5.0 0.00 0.00 0.00 72 1014.5
20240622193017 68 270 5.0 8.0 0.00 0.00 0.00 71 1014.4
20240622192017 68 293 3.0 6.0 0.00 0.00 0.00 70 1014.2
20240622191037 68 270 3.0 4.0 0.00 0.00 0.00 70 1014.0
20240622190037 69 293 4.0 5.0 0.00 0.00 0.00 69 1013.9
20240622185017 69 270 3.0 6.0 0.00 0.06 0.00 68 1013.9
20240622184017 70 270 5.0 7.0 0.00 0.06 0.00 66 1013.7
20240622183037 71 270 5.0 7.0 0.00 0.06 0.00 65 1013.6
20240622182017 71 293 5.0 7.0 0.00 0.06 0.00 63 1013.5
20240622181017 72 270 3.0 4.0 0.00 0.06 0.00 63 1013.3
20240622180017 72 293 4.0 7.0 0.00 0.06 0.00 62 1013.2
20240622175057 72 270 5.0 7.0 0.00 0.08 0.00 62 1013.2
20240622174017 72 270 6.0 11.0 0.00 0.08 0.00 60 1013.1
20240622173037 72 270 3.0 6.0 0.00 0.08 0.00 61 1013.0
20240622172037 73 270 5.0 7.0 0.00 0.08 0.00 60 1013.1
20240622171037 73 270 6.0 11.0 0.00 0.08 0.00 59 1013.0
20240622170017 73 270 6.0 8.0 0.00 0.08 0.00 60 1013.0
20240622165017 73 270 8.0 12.0 0.00 0.08 0.00 58 1012.9
20240622164017 73 270 6.0 9.0 0.00 0.08 0.00 59 1012.9
20240622163017 73 293 7.0 12.0 0.00 0.08 0.00 59 1012.9
20240622162017 73 293 8.0 11.0 0.00 0.08 0.00 57 1012.8
20240622161017 73 270 7.0 12.0 0.00 0.08 0.00 55 1012.7
20240622160017 73 270 5.0 7.0 0.00 0.08 0.00 59 1012.6
20240622155017 74 293 5.0 8.0 0.00 0.08 0.00 57 1012.6
20240622154017 73 270 6.0 9.0 0.00 0.08 0.00 57 1012.7
20240622153017 73 270 6.0 11.0 0.00 0.08 0.00 57 1012.6
20240622152017 73 293 4.0 7.0 0.00 0.08 0.00 57 1012.5
20240622151017 74 270 4.0 8.0 0.00 0.08 0.00 57 1012.6
20240622150017 74 270 5.0 8.0 0.00 0.08 0.00 56 1012.5
20240622145017 74 293 5.0 11.0 0.00 0.08 0.00 56 1012.5
20240622144017 73 293 6.0 9.0 0.00 0.08 0.00 58 1012.4
20240622143017 72 293 5.0 8.0 0.00 0.08 0.00 59 1012.5
20240622142017 72 270 6.0 8.0 0.00 0.08 0.00 59 1012.4
20240622141017 72 293 3.0 5.0 0.00 0.08 0.00 60 1012.5
20240622140017 72 270 6.0 10.0 0.00 0.08 0.00 59 1012.4
20240622135017 72 293 7.0 13.0 0.00 0.10 0.00 58 1012.3
20240622134017 72 270 6.0 10.0 0.00 0.10 0.00 59 1012.3
20240622133017 72 293 5.0 11.0 0.00 0.10 0.00 58 1012.4
20240622132037 72 270 2.0 4.0 0.00 0.10 0.00 61 1012.2
20240622131017 71 293 6.0 7.0 0.00 0.10 0.00 59 1012.3
20240622130017 72 293 10.0 13.0 0.00 0.10 0.00 61 1012.2
20240622125017 72 293 9.0 14.0 0.00 0.10 0.00 61 1012.2
20240622124017 72 293 7.0 11.0 0.00 0.10 0.00 61 1012.2
20240622123017 72 270 9.0 15.0 0.00 0.10 0.00 62 1012.2
20240622122017 72 293 7.0 11.0 0.00 0.10 0.00 61 1012.2
20240622121017 72 270 5.0 8.0 0.00 0.10 0.00 62 1012.1
20240622120017 71 270 7.0 12.0 0.00 0.10 0.00 62 1012.2
20240622115017 71 270 9.0 14.0 0.00 0.10 0.00 61 1012.2
20240622114037 71 270 7.0 9.0 0.00 0.10 0.00 64 1012.2
20240622113017 71 270 8.0 10.0 0.00 0.10 0.00 66 1012.1
20240622112017 71 293 5.0 7.0 0.00 0.10 0.00 68 1012.2
20240622111017 70 293 6.0 7.0 0.00 0.10 0.00 68 1012.0
20240622110017 70 270 7.0 11.0 0.00 0.10 0.00 69 1012.0
20240622105017 69 270 6.0 9.0 0.00 0.10 0.00 72 1012.0
20240622104017 68 270 8.0 13.0 0.00 0.10 0.00 71 1012.2
20240622103037 68 293 7.0 9.0 0.00 0.10 0.00 73 1012.2
20240622102017 68 293 4.0 8.0 0.00 0.10 0.00 74 1012.2
20240622101017 68 293 5.0 9.0 0.00 0.10 0.00 75 1012.2
20240622100037 67 270 7.0 15.0 0.00 0.10 0.00 74 1012.2
20240622095017 67 293 5.0 8.0 0.00 0.10 0.00 76 1012.2
20240622094017 66 270 4.0 7.0 0.00 0.10 0.00 77 1012.3
20240622093037 66 270 4.0 7.0 0.00 0.10 0.00 80 1012.3
20240622092017 65 270 6.0 9.0 0.00 0.10 0.00 80 1012.2
20240622091017 65 293 8.0 11.0 0.00 0.10 0.00 79 1012.3
20240622090017 65 248 4.0 7.0 0.00 0.10 0.00 81 1012.1
20240622085017 64 248 7.0 12.0 0.00 0.10 0.00 81 1012.0
20240622084017 64 270 4.0 13.0 0.00 0.10 0.00 82 1012.2
20240622083017 64 270 6.0 9.0 0.00 0.10 0.00 81 1012.2
20240622082017 64 270 9.0 15.0 0.00 0.10 0.00 82 1012.0
20240622081037 63 248 6.0 9.0 0.00 0.10 0.00 83 1012.0
20240622080017 63 248 6.0 11.0 0.00 0.10 0.00 83 1012.0
20240622075017 63 270 5.0 9.0 0.00 0.10 0.00 84 1012.0
20240622074037 62 270 8.0 11.0 0.00 0.10 0.00 86 1012.0
20240622073017 62 248 5.0 7.0 0.00 0.10 0.00 87 1012.0
20240622072017 61 248 2.0 5.0 0.00 0.10 0.00 89 1012.0
20240622071016 61 248 3.0 6.0 0.00 0.10 0.00 89 1011.9
20240622070017 60 270 4.0 6.0 0.00 0.10 0.00 89 1011.8
20240622065017 60 225 3.0 7.0 0.00 0.10 0.00 90 1011.9
20240622064017 60 270 5.0 6.0 0.00 0.10 0.00 89 1011.9
20240622062017 60 248 3.0 4.0 0.00 0.10 0.00 88 1011.9
20240622061017 60 270 6.0 9.0 0.00 0.10 0.00 88 1011.9
20240622060037 60 270 3.0 5.0 0.00 0.10 0.00 89 1011.8
20240622055017 60 293 5.0 7.0 0.00 0.10 0.00 88 1011.7
20240622054017 60 293 6.0 9.0 0.00 0.10 0.00 90 1011.6
20240622053017 60 270 4.0 6.0 0.00 0.10 0.00 91 1011.6
20240622052017 60 270 3.0 4.0 0.00 0.10 0.00 92 1011.5
20240622051017 60 270 4.0 7.0 0.00 0.10 0.00 93 1011.6
20240622050017 60 270 4.0 6.0 0.00 0.10 0.00 93 1011.4
20240622045016 60 248 5.0 9.0 0.00 0.10 0.00 94 1011.4
20240622044017 59 270 3.0 5.0 0.00 0.10 0.00 94 1011.4
20240622043017 59 293 3.0 5.0 0.00 0.10 0.00 94 1011.3
20240622042017 59 270 3.0 5.0 0.00 0.10 0.00 94 1011.2
20240622041017 59 203 2.0 6.0 0.00 0.10 0.00 94 1011.0
20240622040017 59 248 5.0 8.0 0.00 0.10 0.00 94 1010.9
20240622035037 59 270 4.0 8.0 0.00 0.10 0.00 94 1010.7
20240622034016 59 270 4.0 6.0 0.00 0.10 0.00 94 1010.9
20240622033017 59 293 5.0 8.0 0.00 0.10 0.00 94 1010.9
20240622032057 59 270 7.0 10.0 0.00 0.10 0.00 94 1010.9
20240622031017 59 270 4.0 8.0 0.00 0.10 0.00 94 1010.8
20240622030016 60 270 6.0 9.0 0.00 0.10 0.00 94 1010.9
20240622025037 60 270 6.0 9.0 0.00 0.13 0.00 94 1011.1
20240622024057 60 270 4.0 7.0 0.00 0.13 0.00 94 1011.1
20240622023037 60 293 5.0 7.0 0.00 0.13 0.00 94 1011.1
20240622022017 60 270 6.0 8.0 0.00 0.13 0.00 94 1011.0
20240622021017 60 270 6.0 10.0 0.00 0.13 0.00 93 1011.0
20240622020016 60 270 4.0 8.0 0.00 0.13 0.00 94 1011.1
20240622015037 60 270 6.0 9.0 0.00 0.13 0.00 94 1011.0
20240622014016 60 293 5.0 9.0 0.00 0.13 0.00 94 1011.1
20240622013016 60 270 8.0 14.0 0.00 0.13 0.00 95 1011.0
20240622012016 60 270 7.0 10.0 0.00 0.13 0.00 96 1010.9
20240622011017 61 293 7.0 11.0 0.00 0.13 0.00 95 1010.8
20240622010017 61 270 5.0 7.0 0.00 0.13 0.00 95 1010.8
20240622005017 61 270 8.0 10.0 0.00 0.13 0.00 95 1010.8
20240622004016 61 270 7.0 9.0 0.00 0.13 0.00 95 1010.8
20240622003016 62 270 8.0 12.0 0.00 0.13 0.00 94 1010.8
20240622002016 62 270 14.0 20.0 0.00 0.13 0.00 95 1010.7
20240622001016 62 270 7.0 10.0 0.00 0.13 0.00 95 1010.6
20240622000037 62 293 10.0 14.0 0.00 0.13 0.00 95 1010.5
20240621235016 63 270 7.0 9.0 0.00 0.13 0.00 95 1010.1
20240621234016 63 270 6.0 10.0 0.00 0.13 0.00 95 1010.0
20240621233037 63 270 3.0 5.0 0.00 0.13 0.00 96 1009.9
20240621232016 63 270 5.0 7.0 0.00 0.13 0.00 96 1009.8
20240621231017 63 270 7.0 12.0 0.00 0.13 0.00 96 1009.9
20240621230017 64 270 6.0 11.0 0.00 0.13 0.00 96 1009.8
20240621225017 64 293 6.0 8.0 0.00 0.13 0.00 96 1009.8
20240621224036 64 270 4.0 6.0 0.00 0.13 0.00 96 1009.8
20240621223016 64 270 7.0 10.0 0.00 0.13 0.00 95 1009.9
20240621222017 65 270 3.0 8.0 0.00 0.13 0.00 95 1010.0
20240621221016 65 270 6.0 9.0 0.00 0.13 0.00 96 1009.8
20240621220017 65 270 6.0 12.0 0.00 0.13 0.13 96 1009.7
20240621215037 65 248 2.0 4.0 0.00 0.13 0.13 96 1009.9
20240621214017 65 248 3.0 5.0 0.00 0.13 0.13 96 1009.9
20240621213017 65 270 5.0 6.0 0.00 0.13 0.13 96 1009.6